Вернуться в каталог

STARLINK-38126

АктивенСвязьSSO
NORAD 100235·PAYLOAD·🇺🇸 United States

Запущен Aug 4, 2026 с Vandenberg Space Force Base

Loading…

Ближайшие Пролёты (ближайшие 24 часа)

TLE

СвежийSource: Space-Track

Эпоха: Sep 14, 2026, 23:00 UTC

1 A0235U 26177Y   26257.95857925  .00060869  00000-0  11111-2 0  9991
2 A0235  97.2830 308.7184 0001287  92.5310 267.6089 15.49217950  6502

Отслеживайте STARLINK-38126 в реальном времени с AllMySat

Download on the App Store